Regional Weather Roundup
Issued by NWS

Home | Current Version | Previous Version | Text Only | Print | Product List | Glossary On
Versions: 1 2 3 4 5 6 7 8 9 10 11 12 13 14 15 16 17 18 19 20 21 22 23 24 25 26 27 28 29 30 31 32 33 34 35 36 37 38 39 40 41 42 43 44 45 46 47 48 49 50
000
ASUS43 KFSD 181610
RWRSD

WEATHER ROUNDUP FOR SOUTH DAKOTA
NATIONAL WEATHER SERVICE SIOUX FALLS SD
1100 AM CDT WED APR 18 2018

NOTE: "FAIR" INDICATES FEW OR NO CLOUDS BELOW 12,000 FEET WITH NO
SIGNIFICANT WEATHER AND/OR OBSTRUCTIONS TO VISIBILITY.


SDZ001>005-009-010-012>017-181700-
NORTHWEST AND NORTH CENTRAL SOUTH DAKOTA

CITY           SKY/WX    TMP DP  RH WIND       PRES   REMARKS
BUFFALO          N/A     46  31  55 NW24G32   30.06
FAITH            N/A     34  34 100 N8        30.14R WCI  27
MOBRIDGE       CLOUDY    36  33  89 NW13      30.10R
$$

SDZ012>016-024>037-041>051-057-063-072>074-181700-
SOUTHWEST AND SOUTH CENTRAL SOUTH DAKOTA

CITY           SKY/WX    TMP DP  RH WIND       PRES   REMARKS
RAPID CTY ARPT SUNNY     48  31  51 N29G37    30.14R
PIERRE         LGT SNOW  33  33 100 NW14      30.12R FOG     WCI  23
CUSTER         MOSUNNY   39  18  42 NW17G32   30.13R
ELLSWORTH AFB  SUNNY     47  31  53 NW26G33   30.13R
PHILIP         PTSUNNY   35  34  96 NW10      30.15R WCI  27
PINE RIDGE     MOSUNNY   45  35  68 N9        30.15R
SPEARFISH      FAIR      45  28  53 NW20G26   30.18R
WINNER         LGT SNOW  35  31  85 NW20      30.11R VSB 3/4 WCI  24
$$

SDZ004>011-016>023-039-040-181700-
NORTHEAST SOUTH DAKOTA

CITY           SKY/WX    TMP DP  RH WIND       PRES   REMARKS
ABERDEEN       CLOUDY    41  31  67 N12       30.08R
WATERTOWN      CLOUDY    36  28  73 N10       30.02R
BROOKINGS      CLOUDY    35  28  75 N10       30.02R WCI  27
SISSETON         N/A     38  32  79 NW13      30.04S
$$

SDZ017-020-022-023-036>040-048>070-181700-
SOUTHEAST SOUTH DAKOTA

CITY           SKY/WX    TMP DP  RH WIND       PRES   REMARKS
SIOUX FALLS    LGT SNOW  32  30  92 N20G29    30.00R VSB 1   WCI  20
HURON          CLOUDY    33  31  92 NW10      30.09R WCI  25
CHAMBERLAIN    LGT SNOW  35  35 100 N14       30.11R WCI  25
MITCHELL       SNOW      34  32  92 N13       30.08R VSB 1/2 WCI  25
YANKTON        LGT SNOW  34  30  85 N18       30.02R FOG     WCI  23
$$

ABBREVIATIONS USED IN REMARKS
   TC - TEMPERATURE IN CELSIUS
  WCI - WIND CHILL INDEX
   HX - HEAT INDEX
  VSB - VISIBILITY





USA.gov is the U.S. government's official web portal to all federal, state and local government web resources and services.